Weather History for Nuiqsut, AK

Change the Weather History Date:

Thursday, September 26, 2013

  Actual Average (PAKU) Record (PAKU)
Temperature  
Mean Temperature 20 °F -  
Max Temperature 27 °F 30 °F 45 °F (1984)
Min Temperature 15 °F 24 °F 14 °F (1985)
Degree Days  
Heating Degree Days 45    
Moisture  
Dew Point 21 °F    
Average Humidity 98    
Maximum Humidity 100    
Minimum Humidity 91    
Precipitation  
Precipitation 0.00 in - - ()
Sea Level Pressure  
Sea Level Pressure 29.70 in    
Wind  
Wind Speed 8 mph (South)    
Max Wind Speed 12 mph    
Max Gust Speed -    
Visibility 5 miles    
Events Fog , Rain    
Averages and records for this station are not official NWS values.
T = Trace of Precipitation, MM = Missing Value Source: NWS Daily Summary

Daily Weather History Graph

Daily Weather History Graph

Search for Another Location

Airport:

Trip Planner

Search our weather history database for the weather conditions in past years. The results will help you decide how hot, cold, wet, or windy it might be!

Date:

Astronomy

Sep. 26, 2013 Rise Set
Actual Time 8:01 AM AKDT 7:46 PM AKDT
Civil Twilight 7:00 AM AKDT 8:47 PM AKDT
Nautical Twilight 5:43 AM AKDT 10:03 PM AKDT
Astronomical Twilight 4:04 AM AKDT 11:38 PM AKDT
Moon 9:11 PM AKDT (9/26) 6:47 PM AKDT (9/26)
Length of Visible Light 13h 47m
Length of Day
11h 44m
Waning Gibbous, 53% of the Moon is Illuminated
Sep 26
Waning Gibbous
Sep 26
Last Quarter
Oct 4
New
Oct 11
First Quarter
Oct 18
Full

Hourly Weather History & Observations

Time (AKDT) Temp. Windchill Dew Point Humidity Pressure Visibility Wind Dir Wind Speed Gust Speed Precip Events Conditions
6:09 AM 21.2 °F 9.5 °F 21.2 °F 100% 29.69 in 3.0 mi WSW 11.5 mph - N/A   Overcast
6:13 AM 19.4 °F 7.9 °F 19.4 °F 100% 29.69 in 1.8 mi WSW 10.4 mph - N/A   Overcast
6:20 AM 19.4 °F 8.6 °F 19.4 °F 100% 29.69 in 1.5 mi WSW 9.2 mph - N/A   Overcast
6:29 AM 19.4 °F 7.9 °F 19.4 °F 100% 29.69 in 3.0 mi WSW 10.4 mph - N/A   Overcast
6:48 AM 19.4 °F 7.9 °F 19.4 °F 100% 29.70 in 2.5 mi WSW 10.4 mph - N/A   Overcast
6:49 AM 19.9 °F 8.6 °F 19.0 °F 96% 29.70 in 2.0 mi WSW 10.4 mph - N/A   Overcast
6:56 AM 19.4 °F 10.4 °F 19.4 °F 100% 29.70 in 1.2 mi WSW 6.9 mph - N/A   Overcast
7:05 AM 19.4 °F 10.4 °F 19.4 °F 100% 29.70 in 2.5 mi WSW 6.9 mph - N/A   Overcast
7:14 AM 17.6 °F 8.2 °F 17.6 °F 100% 29.70 in 1.2 mi SW 6.9 mph - N/A   Overcast
7:20 AM 17.6 °F 9.3 °F 17.6 °F 100% 29.70 in 0.8 mi SW 5.8 mph - 0.00 in Rain Light Freezing Rain
7:37 AM 17.6 °F 9.3 °F 17.6 °F 100% 29.71 in 2.0 mi South 5.8 mph - 0.00 in Rain Light Freezing Rain
7:49 AM 15.8 °F 6.1 °F 15.8 °F 100% 29.71 in 0.8 mi South 6.9 mph - 0.00 in Rain Light Freezing Rain
7:53 AM 17.1 °F 7.6 °F 16.0 °F 96% 29.71 in 1.0 mi South 6.9 mph - 0.00 in Rain Light Freezing Rain
8:13 AM 17.6 °F 6.4 °F 15.8 °F 93% 29.71 in 3.0 mi SSW 9.2 mph - 0.00 in Rain Light Freezing Rain
8:41 AM 17.6 °F 8.2 °F 17.6 °F 100% 29.72 in 1.5 mi SSW 6.9 mph - 0.00 in Rain Light Freezing Rain
8:51 AM 17.6 °F 8.2 °F 17.6 °F 100% 29.72 in 0.5 mi SSW 6.9 mph - 0.00 in Fog , Rain Light Freezing Rain
8:53 AM 17.1 °F 7.6 °F 17.1 °F 100% 29.72 in 0.5 mi SSW 6.9 mph - 0.00 in Fog , Rain Light Freezing Rain
9:10 AM 17.6 °F 7.3 °F 17.6 °F 100% 29.71 in 0.2 mi SSW 8.1 mph - 0.00 in Fog , Rain Light Freezing Rain
9:37 AM 17.6 °F 6.4 °F 15.8 °F 93% 29.72 in 1.0 mi SSW 9.2 mph - 0.00 in   Overcast
9:51 AM 17.6 °F 5.7 °F 17.6 °F 100% 29.72 in 0.5 mi SSW 10.4 mph - 0.00 in Fog Light Freezing Fog
9:53 AM 18.0 °F 6.1 °F 17.1 °F 96% 29.72 in 0.5 mi SSW 10.4 mph - 0.00 in Fog Light Freezing Fog
10:53 AM 19.0 °F 9.0 °F 18.0 °F 96% 29.72 in 0.2 mi SSW 8.1 mph - N/A Fog Light Freezing Fog
11:53 AM 19.9 °F 11.1 °F 19.0 °F 96% 29.72 in 0.2 mi SSW 6.9 mph - N/A Fog Light Freezing Fog
12:53 PM 21.9 °F 14.5 °F 21.9 °F 100% 29.72 in 0.2 mi SSW 5.8 mph - N/A Fog Light Freezing Fog
1:53 PM 23.0 °F 18.4 °F 23.0 °F 100% 29.72 in 0.5 mi SSW 3.5 mph - N/A Fog Light Freezing Fog
1:58 PM 23.0 °F 18.4 °F 23.0 °F 100% 29.71 in 2.0 mi SSW 3.5 mph - N/A   Overcast
2:00 PM 23.0 °F 17.0 °F 23.0 °F 100% 29.71 in 7.0 mi SSW 4.6 mph - N/A   Overcast
2:53 PM 24.1 °F - 24.1 °F 100% 29.71 in 10.0 mi Calm Calm - N/A   Overcast
3:53 PM 24.1 °F - 24.1 °F 100% 29.71 in 10.0 mi Calm Calm - N/A   Overcast
4:03 PM 24.8 °F - 24.8 °F 100% 29.70 in 10.0 mi Calm Calm - N/A   Overcast
4:29 PM 24.8 °F - 24.8 °F 100% 29.70 in 9.0 mi Calm Calm - N/A   Overcast
4:49 PM 24.8 °F 20.5 °F 24.8 °F 100% 29.70 in 10.0 mi South 3.5 mph - N/A   Overcast
4:53 PM 25.0 °F 20.7 °F 24.1 °F 96% 29.70 in 10.0 mi ESE 3.5 mph - N/A   Overcast
5:10 PM 24.8 °F 20.5 °F 23.0 °F 93% 29.70 in 10.0 mi East 3.5 mph - N/A   Overcast
5:53 PM 24.1 °F 19.7 °F 23.0 °F 96% 29.70 in 10.0 mi ENE 3.5 mph - N/A   Overcast
6:53 PM 24.1 °F 18.2 °F 21.9 °F 91% 29.69 in 10.0 mi NE 4.6 mph - 0.00 in   Overcast
7:53 PM 23.0 °F 15.8 °F 21.9 °F 96% 29.67 in 10.0 mi NE 5.8 mph - 0.00 in   Overcast
8:53 PM 23.0 °F 15.8 °F 21.9 °F 96% 29.66 in 10.0 mi ENE 5.8 mph - N/A   Overcast
9:30 PM 23.0 °F 13.1 °F 21.2 °F 93% 29.65 in 10.0 mi ENE 9.2 mph - N/A   Overcast
9:45 PM 23.0 °F 13.1 °F 23.0 °F 100% 29.65 in 10.0 mi East 9.2 mph - N/A   Overcast
9:53 PM 24.1 °F 15.2 °F 23.0 °F 96% 29.65 in 10.0 mi East 8.1 mph - N/A   Overcast
10:53 PM 24.1 °F 14.4 °F 24.1 °F 100% 29.64 in 10.0 mi East 9.2 mph - N/A   Overcast
11:31 PM 24.8 °F 15.3 °F 24.8 °F 100% 29.63 in 9.0 mi ENE 9.2 mph - N/A   Overcast
11:53 PM 25.0 °F 15.5 °F 25.0 °F 100% 29.63 in 10.0 mi ENE 9.2 mph - N/A   Overcast